sat.trackr.live / text

‹ back to catalog

COSMOS 2607

NORAD 67681 · 2026-023H

PAYLOAD ACTIVE UNKNOWN

§ Identity

Operator
Country
CIS
Launch date
2026-02-05
Launch site
PLMSC
Launch vehicle
Mass (kg)
RCS (m²)

External: N2YO · Heavens-Above · Gunter

§ Orbital elements

Epoch: 2026-05-25T03:32:04.148736Z

Period
94.45 min
Inclination
96.6311°
Eccentricity
0.0021343
Mean motion
15.24556644 rev/d
Perigee alt
477.5 km
Apogee alt
506.8 km
Semi-major
6,870.3 km
B*
3.1651e-4
RAAN
211.8391°
Arg perigee
199.7019°
Mean anomaly
160.3399°
Rev number
1,648

§ Raw data

COSMOS 26071 67681U 26023H   26145.14727024  .00007784  00000+0  31651-3 0  99902 67681  96.6311 211.8391 0021343 199.7019 160.3399 15.24556644 16482

JSON: /api/v1/satellites/67681 · /tle

For live sub-satellite position, see the globe view (requires WebGL).

§ Visibility from observer

Set your observer location to see the next 7 days of passes ≥ 10°. The values pass through the URL so the page stays shareable.

No JS? Fill the form by hand. The geolocation button needs JavaScript.